Regional Weather Roundup
Issued by NWS Albany, NY

Home | Current Version | Previous Version | Graphics & Text | Print | Product List | Glossary Off
Versions: 1 2 3 4 5 6 7 8 9 10 11 12 13 14 15 16 17 18 19 20 21 22 23 24 25 26 27

000
ASUS41 KALY 212010
RWRALY

NEW YORK STATE HOURLY WEATHER ROUNDUP
NATIONAL WEATHER SERVICE ALBANY NY
400 PM EDT TUE MAR 21 2017

NOTE: "FAIR" INDICATES FEW OR NO CLOUDS BELOW 12,000 FEET WITH NO
SIGNIFICANT WEATHER AND/OR NO OBSTRUCTIONS TO VISIBILITY.

NYZ032-033-038>043-046>054-057>066-NYZ062>081-082-084-212100-
EAST


CITY           SKY/WX    TMP DP  RH WIND       PRES   REMARKS
ALBANY         MOSUNNY   50  31  48 NW14      29.82F
GLENS FALLS    MOSUNNY   48  27  44 W10G21    29.79F
POUGHKEEPSIE   SUNNY     53  27  36 SW6       29.81F
NEWBURGH       MOSUNNY   54  32  43 NW12      29.81F
MONTGOMERY     SUNNY     56  29  35 W13       29.80F
WHITE PLAINS   MOSUNNY   56  28  34 NW9       29.82F
ISLIP          MOSUNNY   56  27  32 SW10      29.84F
NEW YORK CITY  MOSUNNY   60  30  32 W9        29.83F
CENTRAL PARK   SUNNY     58  30  34 CALM      29.86F
$$

NYZ005>009-017-018-044>046-055-056-212100-
CENTRAL


CITY           SKY/WX    TMP DP  RH WIND       PRES   REMARKS
FULTON         MOSUNNY   45  33  63 W15G24    29.88F
SYRACUSE       PTSUNNY   45  32  60 W10       29.87F
ROME           CLOUDY    41  32  70 W9        29.89F
ELMIRA         SUNNY     52  10  18 W15G24    29.87F
BINGHAMTON     SUNNY     47  16  29 NW10G21   29.84F
MONTICELLO     MOSUNNY   48  30  49 W14G21    29.83F
$$

NYZ026>034-041>043-087-212100-
NORTH


CITY           SKY/WX    TMP DP  RH WIND       PRES   REMARKS
WATERTOWN      MOSUNNY   40  35  83 W13G21    29.86F HAZE    WCI  32
FORT DRUM      NOT AVBL
MASSENA        CLOUDY    37  34  89 W7        29.83F FOG     WCI  32
SARANAC LAKE   FLURRIES  35  33  92 W9G20     29.75S WCI  28
PLATTSBURGH    LGT SNOW  33  32  96 CALM      29.81S VSB 1
$$

NYZ001>004-010>016-019>021-085-212100-
WEST


CITY           SKY/WX    TMP DP  RH WIND       PRES   REMARKS
NIAGARA FALLS  SUNNY     49  25  39 SW14      29.89F
BUFFALO        MOSUNNY   44  24  45 SW21G31   29.91F
DUNKIRK        SUNNY     47  35  63 SW15G25   29.95F
JAMESTOWN      SUNNY     46  18  31 W15       29.92F
WELLSVILLE     SUNNY     50  13  22 W18       29.88F
ROCHESTER      MOSUNNY   49  30  48 W18       29.88F
PENN YAN       SUNNY     49  12  22 NW15      29.89F
$$

             KEY
       WCI = WIND CHILL INDEX
       VSB = VISIBILITY
       HX  = HEAT INDEX
$$




USA.gov is the U.S. government's official web portal to all federal, state and local government web resources and services.